Regional Weather Roundup
Issued by NWS Goodland, KS

Home | Current Version | Previous Version | Graphics & Text | Print | Product List | Glossary On
Versions: 1 2 3 4 5 6 7 8 9 10 11 12 13 14 15 16 17 18 19 20 21 22 23 24 25 26 27 28 29 30 31 32 33 34 35 36 37 38 39 40 41 42 43 44 45 46 47 48 49 50
000
ASUS43 KGLD 262108
RWRGLD

GOODLAND FORECAST AREA HOURLY WEATHER ROUNDUP
NATIONAL WEATHER SERVICE GOODLAND KS
300 PM MDT SUN MAR 26 2017

...OFFICIAL OBSERVATIONS...

CITY           SKY/WX    TMP DP  RH WIND       PRES   REMARKS
GOODLAND KS    LGT RAIN  45  43  93 NE12      29.85F
HILL CITY KS   LGT RAIN  46  43  89 NE9       29.86F FOG
IMPERIAL NEB   CLOUDY    58  41  53 N6        29.85F
MCCOOK NEB     MOSUNNY   52  42  69 SE6       29.86F
AKRON CO       CLOUDY    50  35  56 N8        29.89S
BURLINGTON CO  CLOUDY    47  41  80 N12       29.87R
LIMON CO       CLOUDY    48  36  63 N15       29.90R
$$

...UNOFFICIAL OBSERVATIONS...

CITY           SKY/WX    TMP DP  RH WIND       PRES   REMARKS
LENORA KS        N/A     45  32  60 CALM        N/A
NORTON KS      CLOUDY    48  37  66 NE5       29.86S
SHARON SPRINGS   N/A     42  41  96 NE7         N/A
TRENTON NEB      N/A     50  32  50 CALM        N/A
YUMA CO        CLOUDY    48  36  61 N6        29.88R
$$



USA.gov is the U.S. government's official web portal to all federal, state and local government web resources and services.